Date String (YYYY-MM-DD hh:mm:ss) UTC,Instrument flags,Ambient pressure (hPa),Sample flow (lpm),Bypass flow (lpm),Sample temperature (°C),Ambient temperature (°C),ASC tube jacket temperature (°C),LED temperature (°C),Box temperature (°C),Sample RH (%),Span deviation,Mass concentration (μg/m³),Mass concentration (μg/m³),Mass concentration (μg/m³)
DateTimeUTC,F1_M11,P_M11,Q1_M11,Q2_M11,T1_M11,T2_M11,T3_M11,T4_M11,T5_M11,U1_M11,ZSPAN_M11,X0_M11,X2_M11,X1_M11
2022-04-03 11:00:00,,0822.3,5.01,0.00,27.8,26.9,00.0,36.7,29.6,11.2,0003.4,0019.24,0008.01,0006.16
2022-04-03 11:01:00,,0822.4,5.00,0.00,27.8,26.9,00.0,36.7,29.6,11.2,0003.8,0019.45,0008.03,0006.17
2022-04-03 11:02:00,,0822.4,5.01,0.00,27.8,26.9,00.0,36.7,29.6,11.1,0003.9,0018.86,0008.02,0006.16
2022-04-03 11:03:00,,0822.5,5.00,0.00,27.8,26.9,00.0,36.7,29.6,11.1,0003.5,0018.72,0008.00,0006.15
2022-04-03 11:04:00,,0822.5,5.00,0.00,27.8,26.9,00.0,36.7,29.6,11.1,0003.4,0020.01,0008.04,0006.16
2022-04-03 11:05:00,,0822.5,4.99,0.00,27.8,26.9,00.0,36.7,29.6,11.1,0002.1,0019.61,0008.07,0006.18
2022-04-03 11:06:00,,0822.5,4.99,0.00,27.8,26.9,00.0,36.7,29.5,11.1,0002.5,0019.56,0008.09,0006.19
2022-04-03 11:07:00,,0822.5,5.00,0.00,27.8,26.9,00.0,36.7,29.5,11.1,0002.0,0019.56,0008.08,0006.20
2022-04-03 11:08:00,,0822.5,5.00,0.00,27.8,26.9,00.0,36.7,29.5,11.1,0001.4,0019.54,0008.05,0006.18
2022-04-03 11:09:00,,0822.5,5.01,0.00,27.7,26.8,00.0,36.7,29.5,11.1,0001.5,0020.16,0008.04,0006.17
2022-04-03 11:10:00,,0822.5,5.00,0.00,27.7,26.8,00.0,36.7,29.5,11.2,0000.8,0020.78,0008.00,0006.15
2022-04-03 11:11:00,,0822.6,4.99,0.00,27.7,26.8,00.0,36.7,29.5,11.2,0000.1,0020.70,0007.97,0006.12
2022-04-03 11:12:00,,0822.6,5.00,0.00,27.7,26.8,00.0,36.7,29.5,11.3,0000.0,0020.42,0007.93,0006.08
2022-04-03 11:13:00,,0822.5,5.00,0.00,27.7,26.8,00.0,36.7,29.5,11.2,0000.2,0021.13,0007.92,0006.05
2022-04-03 11:14:00,,0822.6,5.00,0.00,27.7,26.8,00.0,36.7,29.5,11.3,0000.2,0020.46,0007.88,0006.05
2022-04-03 11:15:00,,0822.6,5.00,0.00,27.7,26.8,00.0,36.7,29.5,11.3,-000.0,0018.28,0007.72,0005.99
2022-04-03 11:16:00,,0822.6,5.01,0.00,27.7,26.8,00.0,36.7,29.5,11.3,0000.2,0017.30,0007.63,0005.92
2022-04-03 11:17:00,,0822.7,5.00,0.00,27.7,26.8,00.0,36.7,29.5,11.4,-000.3,0016.78,0007.53,0005.85
2022-04-03 11:18:00,,0822.7,4.99,0.00,27.7,26.8,00.0,36.7,29.4,11.4,-000.3,0017.11,0007.46,0005.78
2022-04-03 11:19:00,,0822.7,5.00,0.00,27.6,26.7,00.0,36.7,29.4,11.4,0000.1,0017.36,0007.46,0005.71
2022-04-03 11:20:00,,0822.7,4.99,0.00,27.6,26.7,00.0,36.7,29.3,11.4,-000.2,0016.60,0007.38,0005.66
2022-04-03 11:21:00,,0822.7,5.00,0.00,27.6,26.7,00.0,36.6,29.3,11.4,0001.0,0016.43,0007.36,0005.60
2022-04-03 11:22:00,,0822.7,5.00,0.00,27.6,26.6,00.0,36.6,29.3,11.3,0002.6,0016.71,0007.32,0005.57
2022-04-03 11:23:00,,0822.7,5.01,0.00,27.6,26.6,00.0,36.6,29.3,11.4,0002.8,0016.54,0007.26,0005.55
2022-04-03 11:24:00,,0822.8,5.01,0.00,27.6,26.7,00.0,36.6,29.3,11.4,0002.7,0016.04,0007.23,0005.53
2022-04-03 11:25:00,,0822.8,5.01,0.00,27.6,26.7,00.0,36.6,29.3,11.4,0002.6,0016.13,0007.20,0005.50
2022-04-03 11:26:00,,0822.7,5.00,0.00,27.5,26.7,00.0,36.6,29.3,11.4,0000.5,0016.51,0007.22,0005.49
2022-04-03 11:27:00,,0822.9,5.00,0.00,27.5,26.6,00.0,36.6,29.3,11.4,0001.6,0017.53,0007.17,0005.47
2022-04-03 11:28:00,,0822.9,4.99,0.00,27.5,26.6,00.0,36.6,29.3,11.4,0000.0,0017.59,0007.14,0005.46
2022-04-03 11:29:00,,0823.0,5.00,0.00,27.5,26.6,00.0,36.6,29.3,11.4,0000.0,0017.17,0007.16,0005.47
2022-04-03 11:30:00,,0822.9,5.00,0.00,27.5,26.6,00.0,36.5,29.3,11.4,0000.0,0016.94,0007.18,0005.49
2022-04-03 11:31:00,,0823.0,4.99,0.00,27.5,26.6,00.0,36.5,29.3,11.4,0000.2,0017.47,0007.24,0005.49
2022-04-03 11:32:00,,0823.0,5.00,0.00,27.5,26.6,00.0,36.5,29.3,11.4,0003.2,0016.87,0007.28,0005.51
2022-04-03 11:33:00,,0823.0,4.99,0.00,27.5,26.6,00.0,36.5,29.3,11.4,0002.3,0017.76,0007.30,0005.51
2022-04-03 11:34:00,,0823.1,5.00,0.00,27.5,26.6,00.0,36.5,29.3,11.4,0003.0,0018.50,0007.33,0005.52
2022-04-03 11:35:00,,0823.0,5.00,0.00,27.5,26.7,00.0,36.5,29.3,11.4,0002.8,0018.34,0007.31,0005.52
2022-04-03 11:36:00,,0823.0,5.01,0.00,27.5,26.7,00.0,36.5,29.3,11.4,0002.3,0018.22,0007.29,0005.50
2022-04-03 11:37:00,,0823.1,4.98,0.00,27.5,26.7,00.0,36.5,29.3,11.4,0002.2,0018.10,0007.37,0005.51
2022-04-03 11:38:00,,0823.0,5.00,0.00,27.5,26.7,00.0,36.5,29.3,11.4,0002.0,0017.21,0007.45,0005.55
2022-04-03 11:39:00,,0823.0,5.01,0.00,27.5,26.6,00.0,36.5,29.3,11.5,0002.2,0017.15,0007.52,0005.58
2022-04-03 11:40:00,,0823.0,5.01,0.00,27.5,26.6,00.0,36.5,29.2,11.6,0001.5,0017.03,0007.52,0005.58
2022-04-03 11:41:00,,0823.0,4.99,0.00,27.5,26.5,00.0,36.5,29.2,11.6,0001.2,0018.00,0007.51,0005.57
2022-04-03 11:42:00,,0823.0,5.00,0.00,27.4,26.5,00.0,36.5,29.2,11.6,0000.1,0017.89,0007.46,0005.55
2022-04-03 11:43:00,,0823.1,4.99,0.00,27.4,26.5,00.0,36.5,29.2,11.6,0000.0,0018.17,0007.48,0005.54
2022-04-03 11:44:00,,0823.1,5.00,0.00,27.4,26.5,00.0,36.5,29.2,11.6,0000.0,0018.03,0007.48,0005.55
2022-04-03 11:45:00,,0823.1,5.00,0.00,27.4,26.5,00.0,36.4,29.1,11.6,0000.0,0017.63,0007.48,0005.55
2022-04-03 11:46:00,,0823.1,4.99,0.00,27.4,26.4,00.0,36.4,29.1,11.6,0000.0,0017.33,0007.46,0005.55
2022-04-03 11:47:00,,0823.1,5.00,0.00,27.4,26.4,00.0,36.4,29.1,11.6,0000.0,0017.10,0007.41,0005.56
2022-04-03 11:48:00,,0823.1,5.00,0.00,27.4,26.5,00.0,36.4,29.1,11.6,0000.0,0016.97,0007.36,0005.57
2022-04-03 11:49:00,,0823.1,5.00,0.00,27.3,26.5,00.0,36.4,29.1,11.6,0000.6,0017.05,0007.34,0005.55
2022-04-03 11:50:00,,0823.1,5.00,0.00,27.4,26.5,00.0,36.4,29.1,11.6,0002.2,0017.17,0007.32,0005.54
2022-04-03 11:51:00,,0823.1,5.00,0.00,27.4,26.5,00.0,36.4,29.2,11.6,0002.4,0017.66,0007.34,0005.55
2022-04-03 11:52:00,,0823.0,5.01,0.00,27.4,26.5,00.0,36.4,29.2,11.6,0002.2,0017.22,0007.32,0005.55
2022-04-03 11:53:00,,0823.1,5.01,0.00,27.4,26.5,00.0,36.4,29.2,11.6,0001.7,0017.09,0007.31,0005.57
2022-04-03 11:54:00,,0823.1,4.99,0.00,27.3,26.5,00.0,36.4,29.1,11.7,0001.9,0017.60,0007.26,0005.55
2022-04-03 11:55:00,,0823.1,4.99,0.00,27.3,26.4,00.0,36.4,29.0,11.8,0002.0,0016.89,0007.19,0005.51
2022-04-03 11:56:00,,0823.2,5.00,0.00,27.3,26.4,00.0,36.3,29.0,11.8,0001.7,0016.48,0007.17,0005.48
2022-04-03 11:57:00,,0823.3,5.00,0.00,27.3,26.4,00.0,36.3,29.0,11.8,0001.6,0016.68,0007.14,0005.46
2022-04-03 11:58:00,,0823.3,5.01,0.00,27.3,26.4,00.0,36.3,29.0,11.8,0002.0,0016.80,0007.20,0005.41
2022-04-03 11:59:00,,0823.4,5.00,0.00,27.3,26.4,00.0,36.3,29.1,11.8,0000.9,0016.92,0007.15,0005.34
